Gillette Campbell County Airport Gillette US
ICAO: KGCC
IATA: GCC
Category: Medium
Scheduled Services: Yes

Elevation: 4365 ft
TransAlt. 18000 ft.

Airport Communications:
ASOS:124.175
DENVER CNTR:135.6
CTAF:118.5
GND:121.7
CASPER RDO:122.3
TWR:118.5
UNICOM:122.95

KGCC Zoom In..

Runways:

(A) RW 03 length 5803 ft width 75 ft
---- / hdg 26

(B) RW 16 length 7501 ft width 150 ft
---- / hdg 158

(C) RW 21 length 5803 ft width 75 ft
---- / hdg 206

(D) RW 34 length 7501 ft width 150 ft
ILS 110.10 / hdg 338

Location; KGCC
Day. 25 / Time. 09.53 Zulu
* Altimeter: 30.27
* Temperature: -02° c. -28.4°f.
* Wind from: 160° Speed 10 kn.
Dewpoint: -05° c.
Visibility: 10 Statute Miles.
Clouds: Clear (automated report).

KGCC 250953Z AUTO 16010KT 10SM CLR M02/M05 A3027 RMK AO2 SLP263 T10171050


Wind From 160°
Speed 10 kn.

  YouTube Music Video
 
jpsmedia.com for Web Design  worldairports.se 2018   terms of use